PSLV R/B, 44862

Orbit data source: Space-Track

PSLV R/B, 44862 is space debris in LEO originally from a launch on Wed, 11 Dec 2019 UTC launched from the Sirharikota (SRI). Debris objects in space refer to the collection of defunct objects orbiting the Earth. Examples of debris include non-operational satellites, rocket bodies, and fragments generated from explosions, collisions, or faulty payload assembly.

Loading next visibility...
Identifier
44862, 2019-089L
Orbit
LEO
Country
Flag of ININ / IND
Related business
Manufacturer
VSSC/LPSC
Mission
Spacecraft
Bus & Motor
PS-4, Unknown motor
Mass
920 kg wet, 920 kg dry
Launch date (UTC)
2019-12-11 (6 years ago)
Launch vehicle
Unknown
Launch site
Sirharikota (SRI)
Object type
Payload
Rocket body
Debris
Shape & HBR
Cyl + Cyl + 2 Nozzle, 1.6 m
Radar Cross Section
3.727 m², Large (>1 m²)

Expand to show TLE details & history
Last TLE update: 8 hours ago

TLE from 8 hours ago
0 PSLV R/B
1 44862U 19089L   25295.89152338  .00023434  00000-0  57530-3 0  9992
2 44862  36.9686 126.8172 0019326 224.5584 135.3618 15.39682816324984
Epoch: 2025-10-22T21:23Z
TLE epoch observation values (Epoch: 2025-10-22T21:23:47.620Z)
Latitude
0.00005°
Longitude
134.31023°
Altitude
455.552 km
Speed
7.636 km/s
True Right ascension
08h 27m 16s
True Declination
0° 00' 00"
Sunlit
Object was in daylight at epoch
Visualization orbit readout
Latitude
Unknown
Longitude
Unknown
Altitude
Unknown
Speed
Unknown
Apparent Right ascension
Unknown
Apparent Declination
Unknown
Sunlit
N/A
Visualization observer readout
Local Sidereal Time
00:03:55
Azimuth
Unknown
Elevation
Unknown
Doppler factor
Unknown
Orbital elements
Apogee altitude
463.2 km
Perigee altitude
436.808 km
Semi-major axis
6,828.141 km
Eccentricity
0.00193
Inclination
36.9686°
RAAN
126.8172°
Arg. of periapsis
224.5584°
True anomaly
135.51714°
Mean anomaly
135.3618°
Eccentric anomaly
135.43949°
Mean motion
3.84671 °/min
Orbital period
93.59 mins
BSTAR
0.0005753
Loading maneuver chart data...
Computing Atmospheric mass density...
Loading historical data...
Loading historical data...
Loading historical data...
Loading historical data...
Loading historical data...
Loading historical data...
Loading historical data...

Documentation

Showing up to 5 results
|